Preview of NWS' New Version of Forecast
This preview is not operational and should not be used for support decisions.

Regional Weather Roundup (RWR)

Issued by National Weather Service (NWS)

                            
000
ASUS43 KDTX 201201
RWRMI 
MICHIGAN HOURLY REGIONAL WEATHER ROUNDUP
NATIONAL WEATHER SERVICE DETROIT/PONTIAC MI
800 AM EDT SAT APR 20 2019

NOTE: "FAIR" INDICATES FEW OR NO CLOUDS BELOW 12,000 FEET WITH NO
SIGNIFICANT WEATHER AND/OR OBSTRUCTION TO VISIBILITY.

MIZ047>049-052>055-059>063-066>070-074>076-081>083-201300-
SOUTHEAST LOWER MICHIGAN
  
CITY           SKY/WX    TMP DP  RH WIND       PRES   REMARKS
ADRIAN         CLOUDY    40  35  83 NE20G29   29.61F WCI  30          
6HR MIN TEMP:  39; 6HR MAX TEMP:  40;                                

ALMA           FAIR      38  32  78 N12G17    29.77F WCI  31          
6HR MIN TEMP:  38; 6HR MAX TEMP:  42;                                

ANN ARBOR      CLOUDY    40  36  86 N18G26    29.61F WCI  31          
BAD AXE        FAIR      38  34  85 NE17G25   29.74F WCI  28          
6HR MIN TEMP:  38; 6HR MAX TEMP:  39;                                

CARO           FAIR      38  34  84 N12       29.73S WCI  31          
DETROIT CITY   CLOUDY    40  36  86 NE16G23   29.65S WCI  31          
6HR MIN TEMP:  38; 6HR MAX TEMP:  40; 6HR PCP: TRACE;                

DETROIT        LGT RAIN  40  34  79 N20G29    29.62F WCI  30          
6HR MIN TEMP:  39; 6HR MAX TEMP:  40; 6HR PCP:  0.02;                

FLINT          LGT RAIN  39  34  82 NE14G23   29.71S WCI  31          
6HR MIN TEMP:  39; 6HR MAX TEMP:  40; 6HR PCP: TRACE;                

GROSSE ILE     CLOUDY    40  37  89 NE21G28   29.61R WCI  31          
6HR MIN TEMP:  39; 6HR MAX TEMP:  40;                                

HILLSDALE      RAIN      39  34  84 N14G21    29.62R WCI  31          
6HR MIN TEMP:  39; 6HR MAX TEMP:  40;                                

HOWELL         CLOUDY    38  34  85 N8G16     29.68S WCI  33          
6HR MIN TEMP:  38; 6HR MAX TEMP:  40;                                


CITY           SKY/WX    TMP DP  RH WIND       PRES   REMARKS
JACKSON        CLOUDY    39  35  86 N13G28    29.65S WCI  31          
6HR MIN TEMP:  39; 6HR MAX TEMP:  41;                                

LAMBERTVILLE   RAIN      40  38  93 N14G24    29.59F WCI  32          
6HR MIN TEMP:  40; 6HR MAX TEMP:  40;                                

LANSING        PTSUNNY   39  34  82 N18G25    29.71F WCI  30          
6HR MIN TEMP:  38; 6HR MAX TEMP:  42;                                

LAPEER         CLOUDY    38  36  92 NE13G22   29.70F WCI  30          
6HR MIN TEMP:  38; 6HR MAX TEMP:  39;                                

MASON          CLOUDY    40  35  83 N14G25    29.69R WCI  32          
6HR MIN TEMP:  39; 6HR MAX TEMP:  41;                                

MONROE         CLOUDY    41  40  98 NE14G20   29.62R                  
6HR MIN TEMP:  40; 6HR MAX TEMP:  41;                                

PONTIAC        CLOUDY    38  36  92 N16G29    29.64F WCI  29          
6HR MIN TEMP:  37; 6HR MAX TEMP:  38; 6HR PCP:  0.01;                

PORT HOPE        N/A     38  35  89 NE24      29.75F WCI  27          
6HR MIN TEMP:  38; 6HR MAX TEMP:  39;                                

TRI CITIES     FAIR      40  35  83 NE17      29.76F WCI  31          
6HR MIN TEMP:  38; 6HR MAX TEMP:  42;                                

MIDLAND        FAIR      39  32  77 N6        29.78F WCI  34          
6HR MIN TEMP:  39; 6HR MAX TEMP:  42;                                

TROY           CLOUDY    39  35  84 N14G21    29.65F WCI  31          
SAGINAW HB     FAIR      41  36  81 N21G29    29.74F                  
$$
MIZ043>046-050>051-056>058-064>065-071>073-077>080-201300-
SOUTHWEST LOWER MICHIGAN
  
CITY           SKY/WX    TMP DP  RH WIND       PRES   REMARKS
BATTLE CREEK   FAIR      40  32  73 N15G28    29.69F WCI  32          
6HR MIN TEMP:  39; 6HR MAX TEMP:  43;                                

BENTON HARBOR  FAIR      40  30  67 NE10G22   29.76R WCI  33          
6HR MIN TEMP:  39; 6HR MAX TEMP:  43;                                

BIG RAPIDS     FAIR      38  29  69 N12       29.82S WCI  30          
6HR MIN TEMP:  36; 6HR MAX TEMP:  39;                                

COLDWATER      CLOUDY    41  36  81 N18G25    29.64S                  
6HR MIN TEMP:  41; 6HR MAX TEMP:  42;                                

FREMONT        FAIR      37  26  64 N10G17    29.81F WCI  29          
6HR MIN TEMP:  34; 6HR MAX TEMP:  39;                                

HOLLAND        FAIR      39  27  62 N10G20    29.78F WCI  32          
6HR MIN TEMP:  38; 6HR MAX TEMP:  44;                                

GRAND RAPIDS   FAIR      39  29  67 N13       29.77R WCI  31          
6HR MIN TEMP:  38; 6HR MAX TEMP:  41;                                

IONIA          FAIR      39  30  71 N18G25    29.74R WCI  29          
6HR MIN TEMP:  37; 6HR MAX TEMP:  41;                                

KALAMAZOO      FAIR      40  31  70 N16G24    29.71S WCI  31          
6HR MIN TEMP:  40; 6HR MAX TEMP:  44;                                

LUDINGTON      FAIR      37  25  61 NE6       29.87S WCI  33          
6HR MIN TEMP:  33; 6HR MAX TEMP:  38;                                

MARSHALL       CLOUDY    40  37  90 N12G22    29.67S WCI  33          
6HR MIN TEMP:  39; 6HR MAX TEMP:  42;                                

MOUNT PLEASANT FAIR      38  32  76 N9G17     29.80S WCI  32          
6HR MIN TEMP:  36; 6HR MAX TEMP:  40;                                

MUSKEGON       FAIR      40  25  55 N14G22    29.82F WCI  32          
6HR MIN TEMP:  37; 6HR MAX TEMP:  43;                                

SOUTH HAVEN    FAIR      40  29  64 N8        29.77R WCI  35          
$$
MIZ016>042-201300-
NORTHERN LOWER MICHIGAN
  
CITY           SKY/WX    TMP DP  RH WIND       PRES   REMARKS
ALPENA         FAIR      37  31  78 N13       29.89S WCI  29          
6HR MIN TEMP:  30; 6HR MAX TEMP:  37;                                

BEAVER ISLAND  FAIR      29  28  98 CALM      29.93F                  
6HR MIN TEMP:  23; 6HR MAX TEMP:  33;                                

BELLAIRE       FAIR      30  28  91 CALM      29.91S                  
6HR MIN TEMP:  26; 6HR MAX TEMP:  31;                                

CADILLAC       FAIR      35  26  70 N5        29.84F WCI  31          
CHARLEVOIX     FAIR      33  30  87 N3        29.95R                  
6HR MIN TEMP:  29; 6HR MAX TEMP:  33;                                

FRANKFORT      FAIR      44  24  45 NE10G17   29.90S                  
GAYLORD        FAIR      34  24  67 NE9       29.88S WCI  27          
6HR MIN TEMP:  32; 6HR MAX TEMP:  35;                                

HARBOR SPRINGS FAIR      36  27  72 NE7       29.92R WCI  30          
HOUGHTON LAKE  FAIR      34  26  72 NE10      29.84F WCI  26          
6HR MIN TEMP:  31; 6HR MAX TEMP:  35;                                

MANISTEE       FAIR      39  26  59 NE6       29.88S WCI  35          
OSCODA         FAIR      38  32  80 N16       29.82F WCI  28          
6HR MIN TEMP:  37; 6HR MAX TEMP:  40;                                

PELLSTON       FAIR      29  27  92 CALM      29.93S                  
6HR MIN TEMP:  21; 6HR MAX TEMP:  29;                                

ROGERS CITY    FAIR      36  30  80 N6        29.93S WCI  31          
TRAVERSE CITY  FAIR      30  29  96 CALM      29.90S                  
6HR MIN TEMP:  26; 6HR MAX TEMP:  33;                                

$$
MIZ007>008-015-201300-
EASTERN UPPER MICHIGAN
  
CITY           SKY/WX    TMP DP  RH WIND       PRES   REMARKS
KINROSS        FAIR      35  31  85 CALM      29.94S                  
6HR MIN TEMP:  26; 6HR MAX TEMP:  35;                                

MACKINAC ISLAN FAIR      36  27  71 NE6       29.93S WCI  31          
6HR MIN TEMP:  31; 6HR MAX TEMP:  36;                                

NEWBERRY       FAIR      32  30  92 CALM      29.94S                  
6HR MIN TEMP:  26; 6HR MAX TEMP:  34;                                

S. S. MARIE    FAIR      35  29  78 CALM      29.94S                  
6HR MIN TEMP:  29; 6HR MAX TEMP:  35;                                

MUNISING         N/A     38  21  50 W3        29.92S                  
6HR MIN TEMP:  26; 6HR MAX TEMP:  38;                                

$$
MIZ004>006-011>014-085-201300-
CENTRAL UPPER MICHIGAN
  
CITY           SKY/WX    TMP DP  RH WIND       PRES   REMARKS
MANISTIQUE     FAIR      33  24  67 CALM      29.94R                  
6HR MIN TEMP:  29; 6HR MAX TEMP:  34;                                

ESCANABA       FAIR      30  28  92 CALM      29.94S                  
6HR MIN TEMP:  23; 6HR MAX TEMP:  30;                                

MENOMINEE      FAIR      31  24  75 NW3       29.94S                  
6HR MIN TEMP:  25; 6HR MAX TEMP:  31;                                

SAWYER-GWINN   SUNNY     28  21  74 CALM      29.91S                  
$$
MIZ001>003-009>011-084-201300-
WESTERN UPPER MICHIGAN
  
CITY           SKY/WX    TMP DP  RH WIND       PRES   REMARKS
IRON MOUNTAIN  FAIR      27  22  81 N3        29.92R                  
6HR MIN TEMP:  22; 6HR MAX TEMP:  29;                                

HOUGHTON       FAIR      42  16  34 S7        29.87S                  
6HR MIN TEMP:  38; 6HR MAX TEMP:  42;                                

COPPER HARBOR    N/A     42  20  41 SW13G23   29.87R                  
6HR MIN TEMP:  37; 6HR MAX TEMP:  42;                                

IRONWOOD       FAIR      41  20  43 S12       29.88S                  
6HR MIN TEMP:  28; 6HR MAX TEMP:  45;                                

$$

ABBREVIATIONS USED IN REMARKS
   TC - TEMPERATURE IN CELSIUS
  WCI - WIND CHILL INDEX
   HX - HEAT INDEX
  VSB - VISIBILITY